Simultaneous Nadir Overpasses (SNOs) Predictions

Prediction of SNOs between GOES-14 and NOAA-20 Satellite Orbit:

Table of predicted SNOs for the next 14.0 days since TLE Epoch: 12/23/2022
Index Date Time (GOES-14) GOES-14 Lat,Lon NOAA-20 Lat,Lon Distance(km) Time Diff (sec)
1 12/24/2022 08:32:37 -0.06,-104.44 0.38,-106.54 238.75 80
2 12/25/2022 08:11:12 -0.05,-104.44 -0.61,-102.00 277.39 80
3 12/26/2022 20:33:09 0.07,-104.06 -0.63,-107.30 367.98 80
4 12/27/2022 20:17:04 0.06,-104.07 0.35,-102.76 149.27 80
5 12/29/2022 08:38:54 -0.07,-104.47 0.74,-108.05 408.86 80
6 12/30/2022 08:17:30 -0.07,-104.47 -0.25,-103.52 108.01 80
7 01/01/2023 20:20:42 0.06,-104.11 0.01,-104.28 20.44 80
8 01/02/2023 20:04:38 0.06,-104.12 1.06, -99.76 497.24 80
9 01/04/2023 08:26:28 -0.06,-104.52 0.09,-105.04 60.12 80
10 01/05/2023 08:05:04 -0.05,-104.52 -0.97,-100.52 456.82 80
11 01/06/2023 20:26:59 0.05,-104.14 -0.32,-105.80 189.50 80
